Regional Weather Roundup
Issued by NWS

Home | Current Version | Previous Version | Text Only | Print | Product List | Glossary On
Versions: 1 2 3 4 5 6 7 8 9 10 11 12 13 14 15 16 17 18 19 20 21 22 23 24 25 26 27 28 29 30 31 32 33 34 35 36 37 38 39 40 41 42 43 44 45 46 47 48 49 50
000
ASUS44 KEWX 252102
RWRTX
SOUTH TEXAS REGIONAL WEATHER ROUNDUP
NATIONAL WEATHER SERVICE AUSTIN/SAN ANTONIO TX
300 PM CST TUE NOV 25 2014

NOTE: "FAIR" INDICATED FEW OR NO CLOUDS BELOW 12,000 FEET WITH NO
SIGNIFICANT WEATHER AND/OR OBSTRUCTIONS TO VISIBILITY.

* - THESE STATIONS ARE NOT NWS OR FAA STATIONS...AND ARE NOT SUBJECT
    TO NWS AND FAA QUALITY CONTROL.

TXZ171-172-183>190-252200-
TEXAS HILL COUNTRY AND EDWARDS PLATEAU

CITY           SKY/WX    TMP DP  RH WIND       PRES   REMARKS
JUNCTION       SUNNY     63  20  19 NW10      30.23F
*LLANO         MOSUNNY   64  28  25 W7        30.26F
BURNET         SUNNY     62  23  22 W12       30.24F
*HORSESHOE BAY MOSUNNY   65  24  21 W7        30.23F
*KERRVILLE     MOSUNNY   63  19  18 W12G20    30.25F
*FREDERICKSBRG MOSUNNY   61  24  23 W9        30.24F
*ROCKSPRINGS   SUNNY     61  23  23 MISG      30.27F
*BOERNE STAGE  SUNNY     64  23  20 SW5       30.26F
*CASTROVILLE   SUNNY     67  24  19 W15       30.28F
HONDO          SUNNY     67  25  20 W9        30.28F
*UVALDE        SUNNY     67  29  24 SW9       30.27F
DEL RIO        SUNNY     64  27  24 W10       30.26F
LAUGHLIN AFB   SUNNY     63  29  27 W8        30.26F
CARRIZO SPRGS  SUNNY     66  32  28 NW7       30.28F
$$

TXZ173-191>194-202-209-217>225-228-252200-
CENTRAL AND SOUTH CENTRAL TEXAS

CITY           SKY/WX    TMP DP  RH WIND       PRES   REMARKS
GEORGETOWN     MOSUNNY   64  27  24 W12       30.22F
AUSTIN/BERGSTM MOSUNNY   66  26  22 W6        30.23F
AUSTIN/MABRY   SUNNY     66  27  23 NW8       30.24F
*AUSTIN/EXEC   SUNNY     66  27  22 W12       30.24F
*LAGO VISTA    SUNNY     65  24  21 W8        30.25F
SAN MARCOS     SUNNY     66  27  22 W7        30.25F
NEW BRAUNFELS  SUNNY     68  24  19 NW9       30.23F
RANDOLPH AFB   SUNNY     67  26  21 W6        30.24F
PT SAN ANTONIO SUNNY     67  26  21 W8G20     30.24F
SAN ANTONIO    MOSUNNY   67  25  20 SW13G20   30.25F
STINSON FIELD  SUNNY     67  25  20 W9G17     30.24F
*PLEASANTON    SUNNY     68  26  20 W10       30.27F
*LA GRANGE     SUNNY     67  27  22 NW13      30.23F
*GIDDINGS      SUNNY     65  25  21 NW9       30.27F
*GONZALES      SUNNY     68  29  22 NW10      30.25F
$$

TXZ163>164-176>182-195>201-210>213-226-227-235-252200-
SOUTHEAST TEXAS

CITY           SKY/WX    TMP DP  RH WIND       PRES   REMARKS
COLLEGE STN    SUNNY     64  26  23 CALM      30.23F
*BRYAN         SUNNY     65  30  26 W10       30.25S
*CALDWELL      SUNNY     63  27  25 W3        30.26F
*CROCKETT      SUNNY     66  34  30 SW8       30.24F
*BRENHAM       SUNNY     67  25  20 NW12      30.24F
HUNTSVILLE     SUNNY     64  25  22 NW13G18   30.22F
CONROE         SUNNY     63  28  26 W10       30.23F
HOUSTON BUSH   MOSUNNY   65  25  22 NW12      30.23F
HOUSTON HOBBY  MOSUNNY   65  25  22 N10G20    30.23S
*HOUSTON SW AP SUNNY     63  31  29 NW7       30.24F
PEARLAND       SUNNY     66  24  20 VRB7      30.24F
HOUSTON HOOKS  SUNNY     65  24  21 NW5       30.23F
ELLINGTON FLD  MOSUNNY   63  34  34 N5        30.24F
SUGAR LAND     SUNNY     67  28  23 VRB5      30.23F
*HOUSTON EXEC  NOT AVBL
*CLEVELAND MUN SUNNY     65  31  28 N8        30.23F
*WHARTON       NOT AVBL
*COLUMBUS      FAIR      66  26  22 NW7       30.24F
$$

TXZ214>216-236>238-252200-
THE UPPER TEXAS COAST

CITY           SKY/WX    TMP DP  RH WIND       PRES   REMARKS
*ORANGE        MOSUNNY   60  28  30 N6        30.24S
PORT ARTHUR    MOSUNNY   62  29  28 N9        30.22S
GALVESTON      SUNNY     62  35  36 N6        30.24S
ANGLETON       SUNNY     65  25  22 N7        30.24S
*BAY CITY        N/A     65  27  23 NW6       30.24F
PALACIOS       SUNNY     67  28  23 N6        30.25F
$$

TXZ229>234-239>247-252200-
TEXAS COASTAL BEND AND RIO GRANDE PLAINS

CITY           SKY/WX    TMP DP  RH WIND       PRES   REMARKS
VICTORIA       SUNNY     69  25  19 NW8       30.26F
*BEEVILLE      SUNNY     67  26  21 N8        30.28S
ROCKPORT       SUNNY     65  28  24 SE7       30.27F
*PORT ARANSAS  SUNNY     64  27  25 NE6       30.28F
*PORT LAVACA   SUNNY     65  30  27 W5        30.27S
*INGLESIDE     SUNNY     68  24  19 NE7       30.28F
CORPUS CHRISTI MOSUNNY   68  29  23 N8        30.28F
CORPUS NAS     NOT AVBL
*ROBSTOWN      SUNNY     68  28  22 NW9       30.30S
ALICE          SUNNY     69  27  20 W6        30.28F
KINGSVILLE NAS NOT AVBL
COTULLA        SUNNY     69  25  19 W8        30.29F
LAREDO         SUNNY     69  28  21 VRB5      30.32F
$$

TXZ248>255-252200-
DEEP SOUTH TEXAS

CITY           SKY/WX    TMP DP  RH WIND       PRES   REMARKS
BROWNSVILLE    SUNNY     68  42  38 N15G24    30.28S
PORT ISABEL    SUNNY     68  43  40 N15G23    30.29R
*SOUTH PADRE   SUNNY     68  43  40 N17G23    30.28R
HARLINGEN      SUNNY     69  39  33 N12G18    30.28F
*HEBBRONVILLE  SUNNY     66  23  19 NW8       30.31F
MCALLEN        SUNNY     69  29  22 NW12      30.30S
*WESLACO       SUNNY     69  33  26 NW9G17    30.29F
FALFURRIAS     SUNNY     67  23  18 NW7       30.29F
EDINBURG       MOSUNNY   70  21  15 NW12      30.30S
*ZAPATA        SUNNY     68  25  20 N3        30.30F
$$

TXZ213>215-236>238-242>244-246-247-251-254-255-252200-
CMAN STATIONS

STATION/POSITION TIME  TEMP    WIND        PRES    WAVE
                       AIR SEA DIR/SP/G            HT/PER
                 (UTC) (F)     (DEG/KT/KT) (MB)    (FT/S)
SABINE PASS      2000   57 58   10/  8/ 11 1023.2
SEA RIM ST PARK  2000   58      20/  5/  6 1024.0
NORTH JETTY/GLS  2000   62 59   10/  4/  6   N/A
EAGLE POINT      2000   59 58   80/  3/  4 1023.9
MORGANS POINT    2000   61     140/  4/  6 1023.6
MISSION/ARANSAS  2000   63     350/  4     1027.0
PORT O`CONNOR    2000          350/  1/  2   N/A
PORT ARANSAS     2000   62 63   20/ 10/ 11 1026.3
MALAQUITE BEACH  2000   61 63   40/  5/  7 1025.1
BAFFIN BAY       2000   62 73   30/  9/ 11 1025.9
PORT ISABEL      2000   65 64  340/ 14/ 19 1025.1
$$

GMZ080-GMZ150>470-252200-
OFFSHORE BUOY REPORTS

STATION/POSITION TIME  TEMP    WIND        PRES    WAVE
                       AIR SEA DIR/SP/G            HT/PER
                 (UTC) (F)     (DEG/KT/KT) (MB)    (FT/S)
20 E GALVESTON   2100   58 62  360/  6/  8 1023.5    2/ 4
90 E PT ARANSAS  2100   62 73   20/ 16/ 19 1024.4    6/ 7
35 NE PT MANSFLD 2000   64 73  360/ 17/ 21 1024.4    5/ 7
200 E PT ISABEL  2000   67 74   30/ 23/ 27 1020.1   10/ 8
$$



USA.gov is the U.S. government's official web portal to all federal, state and local government web resources and services.